Weather History for St. Petersburg, FL

Change the Weather History Date:

Wednesday, September 25, 2013

  Actual Average Record
Temperature  
Mean Temperature 76 °F -  
Max Temperature 82 °F 87 °F 93 °F (2005)
Min Temperature 72 °F 74 °F 70 °F (2008)
Cooling Degree Days 12    
Growing Degree Days 26 (Base 50)    
Moisture  
Dew Point 74 °F    
Average Humidity 92    
Maximum Humidity 100    
Minimum Humidity 81    
Precipitation  
Precipitation 2.28 in - - ()
Sea Level Pressure  
Sea Level Pressure 29.86 in    
Wind  
Wind Speed 10 mph (WNW)    
Max Wind Speed 16 mph    
Max Gust Speed 31 mph    
Visibility 6 miles    
Events Fog , Rain , Thunderstorm    
Averages and records for this station are not official NWS values.
T = Trace of Precipitation, MM = Missing Value Source: NWS Daily Summary

Daily Weather History Graph

Daily Weather History Graph

Search for Another Location

Airport:

Trip Planner

Search our weather history database for the weather conditions in past years. The results will help you decide how hot, cold, wet, or windy it might be!

Date:

Astronomy

Sep. 25, 2013 Rise Set
Actual Time 7:20 AM EDT 7:23 PM EDT
Civil Twilight 6:57 AM EDT 7:46 PM EDT
Nautical Twilight 6:29 AM EDT 8:13 PM EDT
Astronomical Twilight 6:02 AM EDT 8:40 PM EDT
Moon 11:54 PM EDT (9/25) 12:58 PM EDT (9/25)
Length of Visible Light 12h 49m
Length of Day
12h 02m
Waning Gibbous, 64% of the Moon is Illuminated
Sep 25
Waning Gibbous
Sep 26
Last Quarter
Oct 4
New
Oct 11
First Quarter
Oct 18
Full

Hourly Weather History & Observations

Time (EDT) Temp. Heat Index Dew Point Humidity Pressure Visibility Wind Dir Wind Speed Gust Speed Precip Events Conditions
12:53 AM 81.0 °F 87.9 °F 77.0 °F 88% 29.86 in 10.0 mi West 8.1 mph - N/A   Clear
1:53 AM 81.0 °F 88.6 °F 78.1 °F 91% 29.84 in 10.0 mi West 6.9 mph - N/A   Partly Cloudy
2:51 AM 77.0 °F - 73.4 °F 89% 29.83 in 3.0 mi WNW 16.1 mph 31.1 mph 0.04 in Rain Rain
2:53 AM 75.9 °F - 73.9 °F 94% 29.83 in 2.0 mi WNW 15.0 mph 31.1 mph 0.07 in Rain Heavy Rain
2:55 AM 75.9 °F - 73.9 °F 94% 29.83 in 1.8 mi WNW 13.8 mph 28.8 mph 0.01 in Rain Heavy Rain
3:08 AM 75.9 °F - 73.9 °F 94% 29.83 in 2.5 mi NNW 10.4 mph 20.7 mph 0.06 in Rain Rain
3:15 AM 75.9 °F - 73.9 °F 94% 29.82 in 8.0 mi North 10.4 mph - 0.07 in Rain Light Rain
3:22 AM 75.0 °F - 73.0 °F 94% 29.82 in 9.0 mi North 10.4 mph - 0.07 in Rain Light Rain
3:53 AM 75.0 °F - 73.0 °F 94% 29.84 in 10.0 mi North 5.8 mph - 0.09 in Rain Light Rain
4:53 AM 75.0 °F - 73.9 °F 96% 29.84 in 7.0 mi West 6.9 mph - 0.09 in Rain Light Rain
5:53 AM 75.0 °F - 73.9 °F 96% 29.84 in 5.0 mi WSW 5.8 mph - 0.12 in Rain Rain
6:53 AM 75.0 °F - 73.0 °F 94% 29.85 in 8.0 mi WNW 3.5 mph - 0.12 in Rain Light Rain
7:50 AM 75.2 °F - 73.4 °F 94% 29.87 in 1.8 mi North 15.0 mph - 0.15 in Rain Heavy Rain
7:51 AM 75.2 °F - 73.4 °F 94% 29.88 in 2.0 mi North 16.1 mph - 0.15 in Rain Heavy Rain
7:53 AM 75.0 °F - 73.0 °F 94% 29.88 in 2.0 mi North 13.8 mph - 0.19 in Rain Heavy Rain
8:03 AM 73.9 °F - 73.0 °F 97% 29.89 in 1.2 mi North 12.7 mph 23.0 mph 0.20 in Rain Heavy Rain
8:17 AM 73.9 °F - 73.9 °F 100% 29.91 in 1.5 mi North 11.5 mph - 0.45 in Rain Heavy Rain
8:26 AM 73.9 °F - 73.0 °F 97% 29.90 in 2.5 mi NNE 12.7 mph - 0.54 in Rain Heavy Rain
8:36 AM 73.0 °F - 73.0 °F 100% 29.89 in 1.8 mi NNE 11.5 mph - 0.65 in Rain Heavy Rain
8:41 AM 73.0 °F - 73.0 °F 100% 29.90 in 3.0 mi North 8.1 mph - 0.66 in Rain Rain
8:53 AM 73.0 °F - 72.0 °F 96% 29.90 in 3.0 mi NE 8.1 mph - 0.69 in Rain Rain
9:09 AM 72.0 °F - 71.1 °F 97% 29.90 in 2.0 mi Variable 3.5 mph - 0.07 in Rain Rain
9:19 AM 72.0 °F - 71.1 °F 97% 29.90 in 4.0 mi Calm Calm - 0.10 in Rain Rain
9:53 AM 73.0 °F - 71.1 °F 93% 29.91 in 5.0 mi North 3.5 mph - 0.17 in Rain , Thunderstorm Rain
10:10 AM 73.0 °F - 71.1 °F 93% 29.91 in 3.0 mi Calm Calm - 0.04 in Rain Rain
10:22 AM 73.0 °F - 71.1 °F 93% 29.93 in 2.5 mi WSW 10.4 mph - 0.09 in Rain Rain
10:28 AM 73.0 °F - 71.1 °F 93% 29.92 in 0.8 mi Calm Calm - 0.23 in Rain Heavy Rain
10:39 AM 72.0 °F - 71.1 °F 97% 29.92 in 0.5 mi WNW 9.2 mph - 0.47 in Fog , Rain Heavy Rain
10:53 AM 73.9 °F - 71.1 °F 91% 29.91 in 1.8 mi West 13.8 mph - 0.57 in Rain Rain
10:57 AM 73.0 °F - 71.1 °F 93% 29.90 in 3.0 mi West 12.7 mph - 0.01 in Rain Rain
11:04 AM 73.0 °F - 71.1 °F 93% 29.90 in 4.0 mi West 15.0 mph - 0.03 in Rain Rain
11:53 AM 73.9 °F - 71.1 °F 91% 29.87 in 6.0 mi WSW 12.7 mph - 0.11 in Rain Light Rain
12:53 PM 75.0 °F - 71.1 °F 87% 29.84 in 10.0 mi WSW 11.5 mph - 0.04 in Rain Light Rain
1:53 PM 75.9 °F - 73.0 °F 91% 29.81 in 10.0 mi SW 9.2 mph - 0.02 in Rain Light Rain
2:53 PM 78.1 °F - 75.0 °F 90% 29.81 in 10.0 mi WSW 9.2 mph - 0.00 in   Clear
3:53 PM 80.1 °F 84.5 °F 73.9 °F 81% 29.80 in 10.0 mi West 15.0 mph - N/A   Clear
4:53 PM 79.0 °F - 73.9 °F 84% 29.79 in 10.0 mi WSW 9.2 mph 19.6 mph N/A   Clear
5:53 PM 79.0 °F - 75.0 °F 88% 29.79 in 10.0 mi West 10.4 mph - N/A   Clear
6:53 PM 79.0 °F - 75.0 °F 88% 29.80 in 10.0 mi WSW 8.1 mph - N/A   Clear
7:53 PM 81.0 °F 86.7 °F 75.0 °F 82% 29.80 in 10.0 mi West 8.1 mph - N/A   Clear
8:53 PM 81.0 °F 87.9 °F 77.0 °F 88% 29.81 in 10.0 mi WSW 8.1 mph - N/A   Scattered Clouds
9:06 PM 81.0 °F 87.9 °F 77.0 °F 88% 29.81 in 10.0 mi WSW 11.5 mph - N/A   Mostly Cloudy
9:53 PM 81.0 °F 87.9 °F 77.0 °F 88% 29.82 in 10.0 mi SW 4.6 mph - N/A   Mostly Cloudy
10:53 PM 81.0 °F 88.6 °F 78.1 °F 91% 29.83 in 10.0 mi WSW 3.5 mph - N/A   Overcast
11:53 PM 81.0 °F 88.6 °F 78.1 °F 91% 29.82 in 10.0 mi WSW 6.9 mph - N/A   Mostly Cloudy